ARA228 DNMM-GOBD

Flight info

Callsign ARA228
Flight time N/A
Altitude 34000
Route POLTO1Q POLTO UL433 ACC UB600 AD UR979 ERIDI ERIDI1A
Aircraft B737/M-SDE2E3FGHIRWXY/LB1

Departure

Time N/A
Airport Murtala Muhammed International Airport (DNMM)

Arrival

Time 2026-05-07 16:02
Airport Blaise Diagne International Airport (GOBD)
Time Latitude Longitude Altitude Speed Heading
2026-05-07 16:02 14.67023 -17.06912 273 ft 0 kts 89°
2026-05-07 16:03 14.67019 -17.06905 274 ft 3 kts 121°
2026-05-07 16:04 14.67010 -17.06901 272 ft 1 kts 174°
2026-05-07 16:04 14.66949 -17.06916 271 ft 21 kts 193°
2026-05-07 16:04 14.66742 -17.06975 272 ft 34 kts 190°
2026-05-07 16:04 14.66594 -17.07089 273 ft 25 kts 176°
2026-05-07 16:05 14.66426 -17.07086 274 ft 23 kts 180°
2026-05-07 16:05 14.66267 -17.07085 275 ft 22 kts 179°
2026-05-07 16:05 14.66112 -17.07083 280 ft 22 kts 178°
2026-05-07 16:05 14.66031 -17.07081 277 ft 7 kts 179°
2026-05-07 16:06 14.65983 -17.07080 277 ft 7 kts 179°
2026-05-07 16:06 14.65935 -17.07080 277 ft 7 kts 180°
2026-05-07 16:06 14.65888 -17.07080 280 ft 7 kts 180°
2026-05-07 16:06 14.65842 -17.07080 278 ft 7 kts 180°
2026-05-07 16:07 14.65800 -17.07080 278 ft 5 kts 179°
2026-05-07 16:07 14.65781 -17.07080 278 ft 0 kts 180°
2026-05-07 16:07 14.65740 -17.07080 279 ft 17 kts 180°
2026-05-07 16:08 14.65569 -17.07077 279 ft 23 kts 178°
2026-05-07 16:08 14.65532 -17.07150 279 ft 1 kts 269°
2026-05-07 16:08 14.65532 -17.07151 279 ft 1 kts 269°
2026-05-07 16:09 14.65530 -17.07227 279 ft 16 kts 269°
2026-05-07 16:09 14.65553 -17.07267 281 ft 0 kts
2026-05-07 16:10 14.65599 -17.07267 279 ft 26 kts 359°
2026-05-07 16:11 14.66019 -17.07272 275 ft 96 kts 359°
2026-05-07 16:11 14.66892 -17.07284 322 ft 148 kts 359°
2026-05-07 16:11 14.67874 -17.07305 1134 ft 133 kts 358°
2026-05-07 16:11 14.68803 -17.07347 1834 ft 138 kts 359°
2026-05-07 16:12 14.69845 -17.07358 2246 ft 163 kts
2026-05-07 16:12 14.71081 -17.07359 2509 ft 196 kts
2026-05-07 16:12 14.72534 -17.07357 2748 ft 222 kts 360°
2026-05-07 16:12 14.73789 -17.07362 2911 ft 243 kts
2026-05-07 16:13 14.75387 -17.07374 3291 ft 261 kts 359°
2026-05-07 16:13 14.77232 -17.07390 4114 ft 265 kts
2026-05-07 16:13 14.79061 -17.07015 4840 ft 274 kts 25°
2026-05-07 16:13 14.80615 -17.05888 5737 ft 274 kts 45°
2026-05-07 16:14 14.81885 -17.04397 6507 ft 281 kts 58°
2026-05-07 16:14 14.82446 -17.02466 7262 ft 285 kts 85°
2026-05-07 16:14 14.82484 -17.00442 8111 ft 287 kts 91°
2026-05-07 16:14 14.82446 -16.98367 8927 ft 291 kts 92°
2026-05-07 16:15 14.82402 -16.96268 9536 ft 294 kts 91°
2026-05-07 16:15 14.82383 -16.94153 9852 ft 296 kts 91°
2026-05-07 16:15 14.82387 -16.92016 9872 ft 298 kts 90°
2026-05-07 16:15 14.82400 -16.89883 9881 ft 297 kts 90°
2026-05-07 16:16 14.82413 -16.87752 9887 ft 296 kts 92°
2026-05-07 16:16 14.82016 -16.85692 9887 ft 293 kts 113°
2026-05-07 16:16 14.81207 -16.83763 9891 ft 293 kts 115°
2026-05-07 16:16 14.80362 -16.81843 9894 ft 293 kts 115°
2026-05-07 16:17 14.79514 -16.79922 9878 ft 294 kts 115°
2026-05-07 16:17 14.78668 -16.78001 9881 ft 294 kts 115°
2026-05-07 16:17 14.77826 -16.76076 9882 ft 294 kts 115°
2026-05-07 16:17 14.76986 -16.74150 9879 ft 294 kts 115°
2026-05-07 16:18 14.76147 -16.72217 9877 ft 295 kts 115°
2026-05-07 16:18 14.75307 -16.70280 9870 ft 295 kts 115°
2026-05-07 16:18 14.74468 -16.68342 9866 ft 295 kts 115°
2026-05-07 16:18 14.73631 -16.66407 9873 ft 295 kts 115°
2026-05-07 16:19 14.72792 -16.64467 9876 ft 295 kts 115°
2026-05-07 16:19 14.71954 -16.62530 9868 ft 295 kts 115°
2026-05-07 16:19 14.71117 -16.60595 9871 ft 295 kts 115°
2026-05-07 16:19 14.70281 -16.58661 9865 ft 295 kts 115°
2026-05-07 16:20 14.69454 -16.56750 9865 ft 295 kts 115°
2026-05-07 16:20 14.68618 -16.54818 9866 ft 295 kts 115°
2026-05-07 16:20 14.67780 -16.52881 9861 ft 294 kts 115°
2026-05-07 16:20 14.66945 -16.50952 9860 ft 294 kts 115°
2026-05-07 16:21 14.66109 -16.49022 9877 ft 294 kts 115°
2026-05-07 16:21 14.65273 -16.47093 9859 ft 294 kts 115°
2026-05-07 16:21 14.64437 -16.45162 9868 ft 294 kts 115°
2026-05-07 16:21 14.63602 -16.43235 9864 ft 294 kts 115°
2026-05-07 16:22 14.62765 -16.41307 9854 ft 294 kts 115°
2026-05-07 16:22 14.61930 -16.39382 9857 ft 293 kts 115°
2026-05-07 16:22 14.61095 -16.37459 9852 ft 294 kts 115°
2026-05-07 16:22 14.60260 -16.35535 9862 ft 294 kts 115°
2026-05-07 16:23 14.59423 -16.33610 9859 ft 294 kts 115°
2026-05-07 16:23 14.58586 -16.31686 9846 ft 294 kts 115°
2026-05-07 16:23 14.57749 -16.29759 9847 ft 294 kts 115°
2026-05-07 16:23 14.56913 -16.27836 9840 ft 294 kts 115°
2026-05-07 16:24 14.56077 -16.25914 9837 ft 293 kts 115°
2026-05-07 16:24 14.55241 -16.23992 9844 ft 293 kts 115°
2026-05-07 16:24 14.54407 -16.22074 9841 ft 293 kts 115°
2026-05-07 16:24 14.53571 -16.20153 9831 ft 293 kts 115°
2026-05-07 16:25 14.52737 -16.18235 9843 ft 293 kts 115°
2026-05-07 16:25 14.51884 -16.16278 9978 ft 310 kts 115°
2026-05-07 16:25 14.50975 -16.14193 10161 ft 334 kts 115°
2026-05-07 16:25 14.49974 -16.11898 10370 ft 356 kts 115°
2026-05-07 16:26 14.48953 -16.09557 10786 ft 367 kts 115°
2026-05-07 16:26 14.47900 -16.07139 11448 ft 370 kts 115°
2026-05-07 16:26 14.46841 -16.04709 12213 ft 371 kts 115°
2026-05-07 16:26 14.46138 -16.03095 12632 ft 374 kts 116°
2026-05-07 16:27 14.44699 -15.99798 13469 ft 380 kts 116°
2026-05-07 16:27 14.43607 -15.97296 14104 ft 383 kts 116°
2026-05-07 16:27 14.42509 -15.94780 14710 ft 387 kts 116°
2026-05-07 16:27 14.41397 -15.92232 15243 ft 392 kts 116°
2026-05-07 16:28 14.40268 -15.89650 15762 ft 397 kts 116°
2026-05-07 16:28 14.39127 -15.87037 16327 ft 401 kts 116°
2026-05-07 16:28 14.37973 -15.84397 16834 ft 406 kts 116°
2026-05-07 16:28 14.36806 -15.81729 17354 ft 411 kts 116°
2026-05-07 16:29 14.35622 -15.79023 17844 ft 416 kts 115°
2026-05-07 16:29 14.34428 -15.76295 18311 ft 420 kts 115°
2026-05-07 16:29 14.33219 -15.73534 18727 ft 424 kts 116°
2026-05-07 16:29 14.32000 -15.70749 19152 ft 428 kts 115°
2026-05-07 16:30 14.30769 -15.67939 19576 ft 431 kts 116°
2026-05-07 16:30 14.29545 -15.65145 19984 ft 435 kts 116°
2026-05-07 16:30 14.28292 -15.62286 20385 ft 439 kts 116°
2026-05-07 16:30 14.27029 -15.59406 20772 ft 442 kts 116°
2026-05-07 16:31 14.25755 -15.56501 21143 ft 446 kts 116°
2026-05-07 16:31 14.24471 -15.53575 21515 ft 449 kts 116°
2026-05-07 16:31 14.23179 -15.50633 21888 ft 453 kts 116°
2026-05-07 16:31 14.21911 -15.47648 22227 ft 457 kts 112°
2026-05-07 16:32 14.20925 -15.44519 22568 ft 461 kts 108°
2026-05-07 16:32 14.20084 -15.41309 22905 ft 465 kts 106°
2026-05-07 16:32 14.19290 -15.38070 23219 ft 468 kts 105°
2026-05-07 16:32 14.18489 -15.34805 23509 ft 471 kts 106°
2026-05-07 16:33 14.17664 -15.31530 23775 ft 473 kts 107°
2026-05-07 16:33 14.16814 -15.28248 24055 ft 475 kts 107°
2026-05-07 16:33 14.15944 -15.24957 24326 ft 477 kts 107°
2026-05-07 16:33 14.15063 -15.21659 24580 ft 479 kts 108°
2026-05-07 16:34 14.14173 -15.18347 24834 ft 481 kts 108°
2026-05-07 16:34 14.13279 -15.15024 25078 ft 483 kts 108°
2026-05-07 16:34 14.12381 -15.11685 25325 ft 484 kts 108°
2026-05-07 16:34 14.11481 -15.08336 25564 ft 486 kts 108°
2026-05-07 16:35 14.10578 -15.04974 25801 ft 488 kts 108°
2026-05-07 16:35 14.09672 -15.01599 26033 ft 490 kts 108°
2026-05-07 16:35 14.08762 -14.98211 26253 ft 491 kts 108°
2026-05-07 16:35 14.07860 -14.94859 26464 ft 493 kts 108°
2026-05-07 16:36 14.06943 -14.91447 26684 ft 495 kts 108°
2026-05-07 16:36 14.06021 -14.88020 26872 ft 497 kts 108°
2026-05-07 16:36 14.05096 -14.84588 27060 ft 498 kts 108°
2026-05-07 16:36 14.04166 -14.81139 27263 ft 500 kts 108°
2026-05-07 16:37 14.03233 -14.77688 27459 ft 501 kts 108°
2026-05-07 16:37 14.02292 -14.74221 27644 ft 503 kts 108°
2026-05-07 16:37 14.01349 -14.70747 27815 ft 505 kts 108°
2026-05-07 16:37 14.00402 -14.67260 27991 ft 506 kts 109°
2026-05-07 16:38 13.99452 -14.63764 28169 ft 507 kts 109°
2026-05-07 16:38 13.98502 -14.60265 28340 ft 509 kts 109°
2026-05-07 16:38 13.97545 -14.56746 28499 ft 510 kts 109°
2026-05-07 16:38 13.96600 -14.53268 28660 ft 511 kts 109°
2026-05-07 16:39 13.95627 -14.49691 28836 ft 512 kts 109°
2026-05-07 16:39 13.94680 -14.46211 29073 ft 511 kts 109°
2026-05-07 16:39 13.93722 -14.42690 29341 ft 511 kts 109°
2026-05-07 16:39 13.92764 -14.39175 29598 ft 510 kts 109°
2026-05-07 16:40 13.91805 -14.35660 29833 ft 510 kts 109°
2026-05-07 16:40 13.90845 -14.32142 30049 ft 510 kts 109°
2026-05-07 16:40 13.89887 -14.28633 30309 ft 509 kts 109°
2026-05-07 16:40 13.88931 -14.25132 30601 ft 507 kts 109°
2026-05-07 16:41 13.87978 -14.21645 30911 ft 505 kts 109°
2026-05-07 16:41 13.87350 -14.19349 31105 ft 504 kts 109°
2026-05-07 16:41 13.86400 -14.15878 31403 ft 503 kts 109°
2026-05-07 16:41 13.85452 -14.12415 31723 ft 501 kts 109°
2026-05-07 16:42 13.84509 -14.08972 32062 ft 499 kts 110°
2026-05-07 16:42 13.83570 -14.05546 32419 ft 496 kts 110°
2026-05-07 16:42 13.82635 -14.02137 32769 ft 494 kts 110°
2026-05-07 16:42 13.81702 -13.98738 33121 ft 493 kts 110°
2026-05-07 16:43 13.80771 -13.95346 33476 ft 491 kts 110°
2026-05-07 16:43 13.79845 -13.91978 33840 ft 489 kts 110°
2026-05-07 16:43 13.78921 -13.88616 34122 ft 488 kts 110°
2026-05-07 16:43 13.77993 -13.85245 34281 ft 491 kts 110°
2026-05-07 16:44 13.77060 -13.81859 34440 ft 493 kts 110°
2026-05-07 16:44 13.76123 -13.78460 34665 ft 493 kts 110°
2026-05-07 16:44 13.75189 -13.75068 34905 ft 493 kts 110°
2026-05-07 16:44 13.74255 -13.71675 35098 ft 494 kts 110°
2026-05-07 16:45 13.73315 -13.68268 35271 ft 496 kts 110°
2026-05-07 16:45 13.72429 -13.64836 35451 ft 498 kts 107°
2026-05-07 16:45 13.71692 -13.61381 35652 ft 500 kts 105°
2026-05-07 16:45 13.71019 -13.57872 35851 ft 501 kts 104°
2026-05-07 16:46 13.70370 -13.54353 36055 ft 501 kts 104°
2026-05-07 16:46 13.69721 -13.50828 36255 ft 502 kts 104°
2026-05-07 16:46 13.69059 -13.47301 36444 ft 502 kts 104°
2026-05-07 16:46 13.68385 -13.43774 36633 ft 503 kts 104°
2026-05-07 16:47 13.67700 -13.40245 36786 ft 504 kts 104°
2026-05-07 16:47 13.66312 -13.33164 36792 ft 504 kts 104°
2026-05-07 16:48 13.64926 -13.26112 36791 ft 502 kts 104°
2026-05-07 16:48 13.63553 -13.19130 36789 ft 501 kts 104°
2026-05-07 16:49 13.62172 -13.12116 36786 ft 501 kts 104°
2026-05-07 16:49 13.60789 -13.05095 36783 ft 501 kts 104°
2026-05-07 16:50 13.59405 -12.98082 36782 ft 501 kts 104°
2026-05-07 16:50 13.58017 -12.91063 36783 ft 502 kts 104°
2026-05-07 16:51 13.56623 -12.84018 36780 ft 503 kts 104°
2026-05-07 16:51 13.55227 -12.76977 36780 ft 503 kts 104°
2026-05-07 16:52 13.53827 -12.69920 36779 ft 504 kts 104°
2026-05-07 16:52 13.52432 -12.62850 36771 ft 505 kts 104°
2026-05-07 16:53 13.51046 -12.55821 36769 ft 505 kts 104°
2026-05-07 16:53 13.49649 -12.48751 36766 ft 505 kts 104°
2026-05-07 16:54 13.48248 -12.41674 36764 ft 505 kts 104°
2026-05-07 16:54 13.46848 -12.34612 36766 ft 504 kts 104°
2026-05-07 16:55 13.45447 -12.27557 36765 ft 504 kts 104°
2026-05-07 16:55 13.44044 -12.20513 36758 ft 503 kts 104°
2026-05-07 16:56 13.42634 -12.13473 36750 ft 503 kts 104°
2026-05-07 16:56 13.40516 -12.02915 36749 ft 503 kts 104°
2026-05-07 16:57 13.39101 -11.95875 36750 ft 503 kts 104°
2026-05-07 16:57 13.37685 -11.88833 36744 ft 503 kts 104°
2026-05-07 16:58 13.36276 -11.81838 36748 ft 504 kts 104°
2026-05-07 16:58 13.34854 -11.74791 36744 ft 504 kts 104°
2026-05-07 16:59 13.33430 -11.67743 36740 ft 504 kts 104°
2026-05-07 16:59 13.32004 -11.60695 36740 ft 504 kts 104°
2026-05-07 17:00 13.30573 -11.53637 36735 ft 505 kts 104°
2026-05-07 17:00 13.29142 -11.46581 36737 ft 505 kts 104°
2026-05-07 17:01 13.27708 -11.39526 36731 ft 505 kts 104°
2026-05-07 17:01 13.26270 -11.32465 36734 ft 505 kts 104°
2026-05-07 17:02 13.24833 -11.25414 36732 ft 505 kts 104°
2026-05-07 17:02 13.23393 -11.18358 36732 ft 505 kts 104°
2026-05-07 17:03 13.21950 -11.11301 36734 ft 505 kts 104°
2026-05-07 17:03 13.20515 -11.04292 36724 ft 505 kts 104°
2026-05-07 17:04 13.19070 -10.97247 36722 ft 504 kts 104°
2026-05-07 17:04 13.17626 -10.90212 36729 ft 504 kts 104°
2026-05-07 17:05 13.16180 -10.83180 36728 ft 504 kts 104°
2026-05-07 17:05 13.14732 -10.76149 36724 ft 503 kts 104°
2026-05-07 17:06 13.13282 -10.69118 36726 ft 503 kts 104°
2026-05-07 17:06 13.11832 -10.62094 36721 ft 503 kts 104°
2026-05-07 17:07 13.10380 -10.55073 36731 ft 503 kts 104°
2026-05-07 17:07 13.08928 -10.48062 36729 ft 503 kts 104°
2026-05-07 17:08 13.07473 -10.41049 36727 ft 502 kts 104°
2026-05-07 17:08 13.06010 -10.34044 36732 ft 502 kts 104°
2026-05-07 17:09 13.04544 -10.27041 36738 ft 502 kts 104°
2026-05-07 17:09 13.03077 -10.20038 36734 ft 502 kts 104°
2026-05-07 17:10 13.01618 -10.13079 36740 ft 502 kts 104°
2026-05-07 17:10 13.00149 -10.06081 36740 ft 502 kts 104°
2026-05-07 17:11 12.98679 -9.99090 36738 ft 502 kts 104°
2026-05-07 17:11 12.97205 -9.92088 36747 ft 502 kts 104°
2026-05-07 17:12 12.95732 -9.85099 36740 ft 502 kts 104°
2026-05-07 17:12 12.94253 -9.78093 36748 ft 501 kts 104°
2026-05-07 17:13 12.92778 -9.71108 36747 ft 502 kts 104°
2026-05-07 17:13 12.91304 -9.64118 36752 ft 501 kts 104°
2026-05-07 17:14 12.89831 -9.57135 36750 ft 501 kts 104°
2026-05-07 17:14 12.88355 -9.50151 36749 ft 501 kts 104°
2026-05-07 17:15 12.86878 -9.43173 36754 ft 501 kts 104°
2026-05-07 17:15 12.85400 -9.36198 36757 ft 501 kts 104°
2026-05-07 17:16 12.83928 -9.29258 36387 ft 506 kts 104°
2026-05-07 17:16 12.83176 -9.25723 35734 ft 507 kts 104°
2026-05-07 17:16 12.82426 -9.22195 34925 ft 508 kts 104°
2026-05-07 17:17 12.81674 -9.18659 34139 ft 508 kts 104°
2026-05-07 17:17 12.80920 -9.15122 33240 ft 509 kts 104°
2026-05-07 17:17 12.80167 -9.11588 32549 ft 504 kts 104°
2026-05-07 17:17 12.79425 -9.08101 31399 ft 500 kts 104°
2026-05-07 17:18 12.78688 -9.04643 30350 ft 493 kts 104°
2026-05-07 17:18 12.77966 -9.01253 29462 ft 481 kts 104°
2026-05-07 17:18 12.77259 -8.97941 28379 ft 473 kts 104°
2026-05-07 17:18 12.76559 -8.94667 27309 ft 466 kts 104°
2026-05-07 17:19 12.75869 -8.91444 26229 ft 462 kts 103°
2026-05-07 17:19 12.75180 -8.88231 25266 ft 458 kts 103°
2026-05-07 17:19 12.74499 -8.85055 24517 ft 459 kts 103°
2026-05-07 17:19 12.73803 -8.81813 23700 ft 474 kts 103°
2026-05-07 17:20 12.73086 -8.78476 22739 ft 479 kts 102°
2026-05-07 17:20 12.72383 -8.75197 21825 ft 463 kts 102°
2026-05-07 17:20 12.71713 -8.72073 21003 ft 446 kts 102°
2026-05-07 17:20 12.71058 -8.69018 20215 ft 432 kts 103°
2026-05-07 17:21 12.70421 -8.66055 19450 ft 422 kts 103°
2026-05-07 17:21 12.69796 -8.63150 18703 ft 414 kts 102°
2026-05-07 17:21 12.69177 -8.60272 17929 ft 417 kts 102°
2026-05-07 17:21 12.68546 -8.57344 17125 ft 421 kts 102°
2026-05-07 17:22 12.67934 -8.54501 16991 ft 395 kts 102°
2026-05-07 17:22 12.67362 -8.51846 16804 ft 369 kts 102°
2026-05-07 17:22 12.66827 -8.49365 16673 ft 345 kts 102°
2026-05-07 17:22 12.66320 -8.47017 16534 ft 330 kts 102°
2026-05-07 17:23 12.65835 -8.44765 16434 ft 318 kts 102°
2026-05-07 17:23 12.65358 -8.42558 16329 ft 320 kts 102°
2026-05-07 17:23 12.64877 -8.40329 16195 ft 317 kts 102°
2026-05-07 17:23 12.64418 -8.38208 16055 ft 300 kts 102°
2026-05-07 17:24 12.64135 -8.36162 15939 ft 282 kts 87°
2026-05-07 17:24 12.64536 -8.34235 15678 ft 277 kts 68°
2026-05-07 17:24 12.65354 -8.32427 15490 ft 286 kts 64°
2026-05-07 17:24 12.66254 -8.30570 15271 ft 295 kts 64°
2026-05-07 17:25 12.67181 -8.28673 15051 ft 299 kts 64°
2026-05-07 17:25 12.68102 -8.26781 14759 ft 295 kts 64°
2026-05-07 17:25 12.69010 -8.24901 14427 ft 294 kts 64°
2026-05-07 17:25 12.69909 -8.23032 14094 ft 292 kts 64°
2026-05-07 17:26 12.70791 -8.21192 13760 ft 291 kts 64°
2026-05-07 17:26 12.71679 -8.19335 13390 ft 290 kts 64°
2026-05-07 17:26 12.72566 -8.17478 13013 ft 290 kts 64°
2026-05-07 17:26 12.73152 -8.16249 12768 ft 289 kts 64°
2026-05-07 17:27 12.74031 -8.14407 12417 ft 287 kts 64°
2026-05-07 17:27 12.74906 -8.12572 12064 ft 286 kts 64°
2026-05-07 17:27 12.75777 -8.10746 11720 ft 285 kts 64°
2026-05-07 17:27 12.76644 -8.08927 11377 ft 284 kts 64°
2026-05-07 17:28 12.77444 -8.07085 11017 ft 282 kts 76°
2026-05-07 17:28 12.77604 -8.05099 10697 ft 280 kts 94°
2026-05-07 17:28 12.77429 -8.03119 10341 ft 280 kts 96°